,,,PA_Meas_PMT16A,,PR_Meas_QMR101_102,,RH_Meas_QMH101,,SR_Meas_QMS101,,TA_Meas_QMH101,,GenWind,,GenWind,
date,time,status,PA,status,PR,status,RH,status,SR,status,TA,status,DirAvg,status,SpdAvg,
2009-11-13, 00:00:04,VALID,1002.95,VALID,0,VALID,91.928,VALID,0,VALID,25.6525,VALID,25,VALID,0.0328125,
2009-11-13, 00:01:04,VALID,1002.93,VALID,0,VALID,91.8899,VALID,0,VALID,25.6136,VALID,25,VALID,0,
2009-11-13, 00:02:04,VALID,1002.92,VALID,0,VALID,91.9204,VALID,0,VALID,25.5532,VALID,25,VALID,0,
2009-11-13, 00:03:04,VALID,1002.92,VALID,0,VALID,92.0348,VALID,0,VALID,25.5337,VALID,25,VALID,0,
2009-11-13, 00:04:04,VALID,1002.96,VALID,0,VALID,92.134,VALID,0,VALID,25.5142,VALID,25,VALID,0,
2009-11-13, 00:05:04,VALID,1002.91,VALID,0,VALID,92.4544,VALID,0,VALID,25.5746,VALID,63,VALID,0.384375,
2009-11-13, 00:06:04,VALID,1002.86,VALID,0,VALID,92.5612,VALID,0,VALID,25.633,VALID,63,VALID,0.0660156,
2009-11-13, 00:07:04,VALID,1002.87,VALID,0,VALID,92.3552,VALID,0,VALID,25.633,VALID,51,VALID,0.425391,
2009-11-13, 00:08:04,VALID,1002.87,VALID,0,VALID,92.2561,VALID,0,VALID,25.635,VALID,50,VALID,0.275781,
2009-11-13, 00:09:04,VALID,1002.85,VALID,0,VALID,92.2713,VALID,0,VALID,25.6525,VALID,19,VALID,0.538281,
2009-11-13, 00:10:04,VALID,1002.83,VALID,0,VALID,92.3781,VALID,0,VALID,25.6915,VALID,17,VALID,0.514844,
2009-11-13, 00:11:04,VALID,1002.79,VALID,0,VALID,92.0958,VALID,0,VALID,25.6895,VALID,15,VALID,0.404297,
2009-11-13, 00:12:04,VALID,1002.8,VALID,0,VALID,92.1111,VALID,0,VALID,25.7499,VALID,15,VALID,0.273438,
2009-11-13, 00:13:04,VALID,1002.75,VALID,0,VALID,91.8365,VALID,0,VALID,25.7674,VALID,15,VALID,0.153125,
2009-11-13, 00:14:04,VALID,1002.74,VALID,0,VALID,91.722,VALID,0,VALID,25.785,VALID,4,VALID,0.428906,
2009-11-13, 00:15:04,VALID,1002.75,VALID,0,VALID,91.7754,VALID,0,VALID,25.8453,VALID,18,VALID,0.360938,
2009-11-13, 00:16:04,VALID,1002.78,VALID,0,VALID,91.5847,VALID,0,VALID,25.8629,VALID,18,VALID,0.182031,
2009-11-13, 00:17:04,VALID,1002.79,VALID,0,VALID,91.2643,VALID,0,VALID,25.8629,VALID,18,VALID,0.367969,
2009-11-13, 00:18:04,VALID,1002.75,VALID,0,VALID,91.2872,VALID,0,VALID,25.9038,VALID,38,VALID,0.217578,
2009-11-13, 00:19:04,VALID,1002.73,VALID,0,VALID,91.1804,VALID,0,VALID,25.9018,VALID,38,VALID,0.0046875,
2009-11-13, 00:20:04,VALID,1002.71,VALID,0,VALID,91.0125,VALID,0,VALID,25.9038,VALID,38,VALID,0.0898438,
2009-11-13, 00:21:04,VALID,1002.7,VALID,0,VALID,90.9973,VALID,0,VALID,25.8843,VALID,38,VALID,0.204688,
2009-11-13, 00:22:04,VALID,1002.71,VALID,0,VALID,91.0354,VALID,0,VALID,25.9038,VALID,38,VALID,0,
2009-11-13, 00:23:04,VALID,1002.7,VALID,0,VALID,91.1804,VALID,0,VALID,25.9232,VALID,38,VALID,0.0492188,
2009-11-13, 00:24:04,VALID,1002.7,VALID,0,VALID,91.2185,VALID,0,VALID,25.9408,VALID,38,VALID,0.232422,
2009-11-13, 00:25:04,VALID,1002.71,VALID,0,VALID,90.86,VALID,0,VALID,25.9622,VALID,46,VALID,0.394141,
2009-11-13, 00:26:04,VALID,1002.67,VALID,0,VALID,90.4633,VALID,0,VALID,25.8648,VALID,46,VALID,0.260938,
2009-11-13, 00:27:04,VALID,1002.64,VALID,0,VALID,90.5701,VALID,0,VALID,25.8064,VALID,46,VALID,0,
2009-11-13, 00:28:04,VALID,1002.6,VALID,0,VALID,90.8295,VALID,0,VALID,25.8064,VALID,46,VALID,0,
2009-11-13, 00:29:04,VALID,1002.61,VALID,0,VALID,90.9897,VALID,0,VALID,25.8064,VALID,46,VALID,0,
2009-11-13, 00:30:04,VALID,1002.65,VALID,0,VALID,90.9668,VALID,0,VALID,25.7869,VALID,46,VALID,0,
2009-11-13, 00:31:04,VALID,1002.61,VALID,0,VALID,90.8981,VALID,0,VALID,25.7674,VALID,45,VALID,0.60625,
2009-11-13, 00:32:04,VALID,1002.62,VALID,0,VALID,90.8676,VALID,0,VALID,25.6876,VALID,45,VALID,0.601563,
2009-11-13, 00:33:04,VALID,1002.62,VALID,0,VALID,91.0354,VALID,0,VALID,25.6292,VALID,45,VALID,0.475391,
2009-11-13, 00:34:04,VALID,1002.59,VALID,0,VALID,91.3482,VALID,0,VALID,25.6116,VALID,45,VALID,0.422656,
2009-11-13, 00:35:04,VALID,1002.61,VALID,0,VALID,91.5389,VALID,0,VALID,25.5941,VALID,33,VALID,0.502734,
2009-11-13, 00:36:04,VALID,1002.61,VALID,0,VALID,92.0196,VALID,0,VALID,25.5921,VALID,358,VALID,0.511328,
2009-11-13, 00:37:04,VALID,1002.58,VALID,0,VALID,91.8212,VALID,0,VALID,25.5123,VALID,358,VALID,0.694531,
2009-11-13, 00:38:04,VALID,1002.56,VALID,0,VALID,91.8746,VALID,0,VALID,25.4948,VALID,358,VALID,0.492969,
2009-11-13, 00:39:04,VALID,1002.55,VALID,0,VALID,92.1492,VALID,0,VALID,25.4948,VALID,358,VALID,0.207031,
2009-11-13, 00:40:04,VALID,1002.55,VALID,0,VALID,92.2332,VALID,0,VALID,25.4948,VALID,358,VALID,0.255469,
2009-11-13, 00:41:04,VALID,1002.56,VALID,0,VALID,92.2484,VALID,0,VALID,25.4558,VALID,358,VALID,0.225781,
2009-11-13, 00:42:04,VALID,1002.6,VALID,0,VALID,92.3018,VALID,0,VALID,25.4344,VALID,358,VALID,0.274219,
2009-11-13, 00:43:04,VALID,1002.61,VALID,0,VALID,92.5383,VALID,0,VALID,25.4344,VALID,358,VALID,0.262891,
2009-11-13, 00:44:04,VALID,1002.61,VALID,0,VALID,92.5765,VALID,0,VALID,25.4558,VALID,358,VALID,0.255859,
2009-11-13, 00:45:04,VALID,1002.6,VALID,0,VALID,92.6222,VALID,0,VALID,25.4344,VALID,358,VALID,0.268359,
2009-11-13, 00:46:04,VALID,1002.56,VALID,0,VALID,92.6833,VALID,0,VALID,25.4558,VALID,358,VALID,0,
2009-11-13, 00:47:04,VALID,1002.55,VALID,0,VALID,92.8206,VALID,0,VALID,25.5162,VALID,358,VALID,0,
2009-11-13, 00:48:04,VALID,1002.57,VALID,0,VALID,92.8892,VALID,0,VALID,25.4948,VALID,358,VALID,0,
2009-11-13, 00:49:04,VALID,1002.57,VALID,0,VALID,92.7824,VALID,0,VALID,25.4928,VALID,358,VALID,0.539844,
2009-11-13, 00:50:04,VALID,1002.55,VALID,0,VALID,92.7062,VALID,0,VALID,25.4734,VALID,358,VALID,0.440234,
2009-11-13, 00:51:04,VALID,1002.55,VALID,0,VALID,92.6756,VALID,0,VALID,25.4734,VALID,358,VALID,0.529688,
2009-11-13, 00:52:04,VALID,1002.55,VALID,0,VALID,92.546,VALID,0,VALID,25.4558,VALID,357,VALID,0.674609,
2009-11-13, 00:53:04,VALID,1002.51,VALID,0,VALID,92.4315,VALID,0,VALID,25.3974,VALID,10,VALID,0.625391,
2009-11-13, 00:54:04,VALID,1002.51,VALID,0,VALID,92.5917,VALID,0,VALID,25.3779,VALID,10,VALID,0.353125,
2009-11-13, 00:55:04,VALID,1002.49,VALID,0,VALID,92.5917,VALID,0,VALID,25.3584,VALID,10,VALID,0.374609,
2009-11-13, 00:56:04,VALID,1002.46,VALID,0,VALID,92.6756,VALID,0,VALID,25.3195,VALID,10,VALID,0.258594,
2009-11-13, 00:57:04,VALID,1002.45,VALID,0,VALID,92.7977,VALID,0,VALID,25.3195,VALID,10,VALID,0.225,
2009-11-13, 00:58:04,VALID,1002.47,VALID,0,VALID,92.8435,VALID,0,VALID,25.3214,VALID,10,VALID,0,
2009-11-13, 00:59:04,VALID,1002.47,VALID,0,VALID,92.8511,VALID,0,VALID,25.2786,VALID,10,VALID,0,
2009-11-13, 01:00:04,VALID,1002.47,VALID,0,VALID,92.9503,VALID,0,VALID,25.2806,VALID,10,VALID,0.194141,
2009-11-13, 01:01:04,VALID,1002.46,VALID,0,VALID,93.1486,VALID,0,VALID,25.339,VALID,10,VALID,0.219531,
2009-11-13, 01:02:04,VALID,1002.46,VALID,0,VALID,93.2936,VALID,0,VALID,25.3584,VALID,10,VALID,0.296484,
2009-11-13, 01:03:04,VALID,1002.44,VALID,0,VALID,93.347,VALID,0,VALID,25.3565,VALID,10,VALID,0.192578,
2009-11-13, 01:04:04,VALID,1002.42,VALID,0,VALID,93.347,VALID,0,VALID,25.3974,VALID,10,VALID,0,
2009-11-13, 01:05:04,VALID,1002.39,VALID,0,VALID,93.408,VALID,0.100563,VALID,25.4363,VALID,9,VALID,0.174609,
2009-11-13, 01:06:04,VALID,1002.37,VALID,0,VALID,93.469,VALID,0,VALID,25.4734,VALID,9,VALID,0.205078,
2009-11-13, 01:07:04,VALID,1002.37,VALID,0,VALID,93.4767,VALID,0.100563,VALID,25.5337,VALID,9,VALID,0.065625,
2009-11-13, 01:08:04,VALID,1002.34,VALID,0,VALID,93.3851,VALID,0,VALID,25.5123,VALID,9,VALID,0.612109,
2009-11-13, 01:09:04,VALID,1002.32,VALID,0,VALID,93.0342,VALID,0,VALID,25.4344,VALID,12,VALID,0.577344,
2009-11-13, 01:10:04,VALID,1002.29,VALID,0,VALID,92.7519,VALID,0,VALID,25.3974,VALID,12,VALID,0.564844,
2009-11-13, 01:11:04,VALID,1002.28,VALID,0,VALID,92.6299,VALID,0,VALID,25.3584,VALID,12,VALID,0.123047,
2009-11-13, 01:12:04,VALID,1002.23,VALID,0,VALID,92.7214,VALID,0,VALID,25.3176,VALID,12,VALID,0.307031,
2009-11-13, 01:13:04,VALID,1002.23,VALID,0,VALID,92.8282,VALID,0,VALID,25.2981,VALID,12,VALID,0.299219,
2009-11-13, 01:14:04,VALID,1002.23,VALID,0,VALID,92.9045,VALID,0,VALID,25.3195,VALID,12,VALID,0.155469,
2009-11-13, 01:15:04,VALID,1002.19,VALID,0,VALID,93.0342,VALID,0,VALID,25.3409,VALID,12,VALID,0.314844,
2009-11-13, 01:16:04,VALID,1002.16,VALID,0,VALID,93.2402,VALID,0,VALID,25.337,VALID,12,VALID,0.607031,
2009-11-13, 01:17:04,VALID,1002.17,VALID,0,VALID,93.3546,VALID,0.100563,VALID,25.3955,VALID,2,VALID,0.572656,
2009-11-13, 01:18:04,VALID,1002.19,VALID,0,VALID,93.4004,VALID,0,VALID,25.4149,VALID,2,VALID,0.494531,
2009-11-13, 01:19:04,VALID,1002.16,VALID,0,VALID,93.3165,VALID,0,VALID,25.4363,VALID,2,VALID,0.525391,
2009-11-13, 01:20:04,VALID,1002.2,VALID,0,VALID,93.2478,VALID,0,VALID,25.4558,VALID,11,VALID,0.560156,
2009-11-13, 01:21:04,VALID,1002.17,VALID,0,VALID,93.202,VALID,0,VALID,25.4363,VALID,12,VALID,0.592578,
2009-11-13, 01:22:04,VALID,1002.16,VALID,0,VALID,93.2249,VALID,0,VALID,25.4558,VALID,12,VALID,0.237109,
2009-11-13, 01:23:04,VALID,1002.14,VALID,0,VALID,93.2402,VALID,0,VALID,25.4539,VALID,12,VALID,0.562109,
2009-11-13, 01:24:04,VALID,1002.11,VALID,0,VALID,93.1868,VALID,0,VALID,25.4558,VALID,12,VALID,0.5125,
2009-11-13, 01:25:04,VALID,1002.11,VALID,0,VALID,93.1715,VALID,0,VALID,25.4734,VALID,12,VALID,0.738281,
2009-11-13, 01:26:04,VALID,1002.1,VALID,0,VALID,93.2859,VALID,0.100563,VALID,25.5142,VALID,12,VALID,0.679688,
2009-11-13, 01:27:04,VALID,1002.1,VALID,0,VALID,93.3928,VALID,0,VALID,25.5707,VALID,12,VALID,0.758203,
2009-11-13, 01:28:04,VALID,1002.1,VALID,0,VALID,93.553,VALID,0,VALID,25.7071,VALID,28,VALID,0.710156,
2009-11-13, 01:29:04,VALID,1002.11,VALID,0,VALID,93.4767,VALID,0,VALID,25.8259,VALID,358,VALID,0.562109,
2009-11-13, 01:30:04,VALID,1002.07,VALID,0,VALID,93.2631,VALID,0,VALID,25.8629,VALID,23,VALID,0.800781,
2009-11-13, 01:31:04,VALID,1002.09,VALID,0,VALID,92.9884,VALID,0,VALID,25.9622,VALID,19,VALID,0.832812,
2009-11-13, 01:32:04,VALID,1002.16,VALID,0,VALID,92.6299,VALID,0,VALID,26.0206,VALID,17,VALID,0.771484,
2009-11-13, 01:33:04,VALID,1002.17,VALID,0,VALID,92.2637,VALID,0,VALID,26.0187,VALID,19,VALID,1.41484,
2009-11-13, 01:34:04,VALID,1002.22,VALID,0,VALID,92.5383,VALID,0,VALID,26.155,VALID,31,VALID,1.54023,
2009-11-13, 01:35:04,VALID,1002.23,VALID,0.5,VALID,92.6299,VALID,0,VALID,26.1959,VALID,30,VALID,3.11445,
2009-11-13, 01:36:04,VALID,1002.28,VALID,1,VALID,92.7214,VALID,0,VALID,26.157,VALID,24,VALID,1.10156,
2009-11-13, 01:37:04,VALID,1002.3,VALID,0.5,VALID,92.8969,VALID,0,VALID,26.0576,VALID,10,VALID,1.92227,
2009-11-13, 01:38:04,VALID,1002.29,VALID,0.5,VALID,93.1257,VALID,0,VALID,25.9992,VALID,14,VALID,0.970312,
2009-11-13, 01:39:04,VALID,1002.24,VALID,0.5,VALID,93.3851,VALID,0,VALID,25.9622,VALID,353,VALID,1.66602,
2009-11-13, 01:40:04,VALID,1002.23,VALID,0.5,VALID,93.4996,VALID,0,VALID,25.8843,VALID,20,VALID,1.41094,
2009-11-13, 01:41:04,VALID,1002.28,VALID,0,VALID,93.6521,VALID,0,VALID,25.8239,VALID,21,VALID,1.51602,
2009-11-13, 01:42:04,VALID,1002.18,VALID,1,VALID,93.8123,VALID,0,VALID,25.7869,VALID,343,VALID,1.31328,
2009-11-13, 01:43:04,VALID,1002.1,VALID,1.5,VALID,93.7132,VALID,0,VALID,25.6292,VALID,318,VALID,1.49219,
2009-11-13, 01:44:04,VALID,1002.08,VALID,0,VALID,93.4385,VALID,0,VALID,25.4169,VALID,5,VALID,1.23164,
2009-11-13, 01:45:04,VALID,1002.08,VALID,0,VALID,93.2173,VALID,0,VALID,25.1832,VALID,16,VALID,0.960547,
2009-11-13, 01:46:04,VALID,1002.12,VALID,0,VALID,93.4233,VALID,0,VALID,25.0858,VALID,37,VALID,1.27461,
2009-11-13, 01:47:04,VALID,1002.11,VALID,0,VALID,93.7284,VALID,0,VALID,25.0663,VALID,9,VALID,1.01836,
2009-11-13, 01:48:04,VALID,1002.08,VALID,0,VALID,94.0107,VALID,0,VALID,25.0663,VALID,2,VALID,0.701172,
2009-11-13, 01:49:04,VALID,1002.05,VALID,0,VALID,94.1938,VALID,0,VALID,25.0858,VALID,42,VALID,0.842969,
2009-11-13, 01:50:04,VALID,1002.05,VALID,0,VALID,94.293,VALID,0,VALID,25.1053,VALID,14,VALID,0.848828,
2009-11-13, 01:51:04,VALID,1002.03,VALID,0,VALID,94.4303,VALID,0,VALID,25.1034,VALID,7,VALID,0.820703,
2009-11-13, 01:52:04,VALID,1002.04,VALID,0,VALID,94.5295,VALID,0,VALID,25.1442,VALID,7,VALID,0.744922,
2009-11-13, 01:53:04,VALID,1002.05,VALID,0,VALID,94.5905,VALID,0,VALID,25.1229,VALID,7,VALID,0.674219,
2009-11-13, 01:54:04,VALID,1002.04,VALID,0,VALID,94.6286,VALID,0.100563,VALID,25.1229,VALID,7,VALID,0.50625,
2009-11-13, 01:55:04,VALID,1002.04,VALID,0,VALID,94.6973,VALID,0,VALID,25.1442,VALID,7,VALID,0.642969,
2009-11-13, 01:56:04,VALID,1002.04,VALID,0,VALID,94.7278,VALID,0,VALID,25.1248,VALID,9,VALID,0.832031,
2009-11-13, 01:57:04,VALID,1002.04,VALID,0,VALID,94.7736,VALID,0,VALID,25.1034,VALID,28,VALID,0.573047,
2009-11-13, 01:58:04,VALID,1002.03,VALID,0,VALID,94.8194,VALID,0,VALID,25.1442,VALID,20,VALID,1.1668,
2009-11-13, 01:59:04,VALID,1002.05,VALID,0,VALID,94.8575,VALID,0,VALID,25.1423,VALID,2,VALID,0.701563,
2009-11-13, 02:00:04,VALID,1002.06,VALID,0,VALID,94.8956,VALID,0,VALID,25.1832,VALID,32,VALID,0.997656,
2009-11-13, 02:01:04,VALID,1002.06,VALID,0,VALID,94.9262,VALID,0,VALID,25.1618,VALID,31,VALID,0.633594,
2009-11-13, 02:02:04,VALID,1002.07,VALID,0,VALID,94.9338,VALID,0,VALID,25.2027,VALID,31,VALID,0.670313,
2009-11-13, 02:03:04,VALID,1002.08,VALID,0,VALID,94.9643,VALID,0,VALID,25.1637,VALID,31,VALID,0.526563,
2009-11-13, 02:04:04,VALID,1002.04,VALID,0,VALID,94.9719,VALID,0,VALID,25.1832,VALID,31,VALID,0.622266,
2009-11-13, 02:05:04,VALID,1002.01,VALID,0,VALID,95.0101,VALID,0,VALID,25.1851,VALID,31,VALID,0.0714844,
2009-11-13, 02:06:04,VALID,1001.96,VALID,0,VALID,95.0177,VALID,0,VALID,25.1637,VALID,31,VALID,0.289844,
2009-11-13, 02:07:04,VALID,1001.95,VALID,0,VALID,95.0558,VALID,0,VALID,25.1637,VALID,31,VALID,0.332422,
2009-11-13, 02:08:04,VALID,1001.94,VALID,0,VALID,95.0711,VALID,0,VALID,25.1637,VALID,23,VALID,0.445703,
2009-11-13, 02:09:04,VALID,1001.94,VALID,0,VALID,95.0787,VALID,0,VALID,25.1832,VALID,13,VALID,0.546484,
2009-11-13, 02:10:04,VALID,1001.96,VALID,0,VALID,95.1093,VALID,0,VALID,25.2007,VALID,57,VALID,0.528906,
2009-11-13, 02:11:04,VALID,1001.94,VALID,0,VALID,95.1321,VALID,0,VALID,25.2416,VALID,37,VALID,0.459766,
2009-11-13, 02:12:04,VALID,1001.96,VALID,0,VALID,95.1321,VALID,0,VALID,25.2416,VALID,345,VALID,0.497656,
2009-11-13, 02:13:04,VALID,1001.96,VALID,0,VALID,95.1321,VALID,0,VALID,25.2416,VALID,360,VALID,0.839453,
2009-11-13, 02:14:04,VALID,1001.98,VALID,0,VALID,95.1627,VALID,0,VALID,25.2397,VALID,27,VALID,0.804688,
2009-11-13, 02:15:04,VALID,1002,VALID,0,VALID,95.1779,VALID,0,VALID,25.2611,VALID,358,VALID,0.335547,
2009-11-13, 02:16:04,VALID,1002.01,VALID,0,VALID,95.2008,VALID,0,VALID,25.2767,VALID,20,VALID,0.944141,
2009-11-13, 02:17:04,VALID,1002.02,VALID,0,VALID,95.2008,VALID,0,VALID,25.3195,VALID,41,VALID,0.510938,
2009-11-13, 02:18:04,VALID,1002.01,VALID,0,VALID,95.2084,VALID,0,VALID,25.3195,VALID,22,VALID,1.01133,
2009-11-13, 02:19:04,VALID,1002.01,VALID,0,VALID,95.2237,VALID,0,VALID,25.3195,VALID,11,VALID,0.454688,
2009-11-13, 02:20:04,VALID,1002.04,VALID,0,VALID,95.2237,VALID,0,VALID,25.2981,VALID,2,VALID,0.761328,
2009-11-13, 02:21:04,VALID,1002.06,VALID,0,VALID,95.2389,VALID,0,VALID,25.337,VALID,30,VALID,0.58125,
2009-11-13, 02:22:04,VALID,1002.07,VALID,0,VALID,95.2389,VALID,0.100563,VALID,25.337,VALID,29,VALID,0.476172,
2009-11-13, 02:23:04,VALID,1002.09,VALID,0,VALID,95.2542,VALID,0,VALID,25.3176,VALID,29,VALID,0.304688,
2009-11-13, 02:24:04,VALID,1002.09,VALID,0,VALID,95.2389,VALID,0,VALID,25.3176,VALID,49,VALID,0.301562,
2009-11-13, 02:25:04,VALID,1002.1,VALID,0,VALID,95.2466,VALID,0,VALID,25.3176,VALID,79,VALID,0.499609,
2009-11-13, 02:26:04,VALID,1002.11,VALID,0,VALID,95.2618,VALID,0,VALID,25.3,VALID,79,VALID,0.148828,
2009-11-13, 02:27:04,VALID,1002.11,VALID,0,VALID,95.2542,VALID,0,VALID,25.2786,VALID,60,VALID,0.364844,
2009-11-13, 02:28:04,VALID,1002.06,VALID,0,VALID,95.2771,VALID,0,VALID,25.2981,VALID,29,VALID,0.4125,
2009-11-13, 02:29:04,VALID,1002.03,VALID,0,VALID,95.2618,VALID,0,VALID,25.2981,VALID,29,VALID,0.208984,
2009-11-13, 02:30:04,VALID,1002.04,VALID,0,VALID,95.2771,VALID,0,VALID,25.3,VALID,29,VALID,0.210547,
2009-11-13, 02:31:04,VALID,1002.06,VALID,0,VALID,95.2847,VALID,0,VALID,25.3195,VALID,29,VALID,0.471484,
2009-11-13, 02:32:04,VALID,1002.04,VALID,0,VALID,95.2618,VALID,0,VALID,25.3176,VALID,25,VALID,0.45,
2009-11-13, 02:33:04,VALID,1002.03,VALID,0,VALID,95.2847,VALID,0,VALID,25.3584,VALID,25,VALID,0.529297,
2009-11-13, 02:34:04,VALID,1002.02,VALID,0,VALID,95.2923,VALID,0,VALID,25.3176,VALID,25,VALID,0.494141,
2009-11-13, 02:35:04,VALID,1001.97,VALID,0,VALID,95.3,VALID,0,VALID,25.3195,VALID,25,VALID,0.260156,
2009-11-13, 02:36:04,VALID,1001.96,VALID,0,VALID,95.3076,VALID,0,VALID,25.3,VALID,25,VALID,0.310547,
2009-11-13, 02:37:04,VALID,1001.91,VALID,0,VALID,95.3076,VALID,0,VALID,25.3195,VALID,27,VALID,0.580469,
2009-11-13, 02:38:04,VALID,1001.87,VALID,0,VALID,95.3,VALID,0,VALID,25.3195,VALID,21,VALID,0.603906,
2009-11-13, 02:39:04,VALID,1001.85,VALID,0,VALID,95.3229,VALID,0,VALID,25.3,VALID,15,VALID,0.485156,
2009-11-13, 02:40:04,VALID,1001.85,VALID,0,VALID,95.3229,VALID,0,VALID,25.3176,VALID,15,VALID,0.424609,
2009-11-13, 02:41:04,VALID,1001.85,VALID,0,VALID,95.3381,VALID,0,VALID,25.3584,VALID,15,VALID,0.343359,
2009-11-13, 02:42:04,VALID,1001.86,VALID,0,VALID,95.3305,VALID,0,VALID,25.3176,VALID,19,VALID,0.609766,
2009-11-13, 02:43:04,VALID,1001.88,VALID,0,VALID,95.3229,VALID,0,VALID,25.3779,VALID,40,VALID,0.689844,
2009-11-13, 02:44:04,VALID,1001.84,VALID,0,VALID,95.3381,VALID,0,VALID,25.3779,VALID,22,VALID,0.512891,
2009-11-13, 02:45:04,VALID,1001.81,VALID,0,VALID,95.3457,VALID,0,VALID,25.4558,VALID,36,VALID,0.603906,
2009-11-13, 02:46:04,VALID,1001.78,VALID,0,VALID,95.361,VALID,0,VALID,25.4344,VALID,33,VALID,0.195313,
2009-11-13, 02:47:04,VALID,1001.78,VALID,0,VALID,95.3534,VALID,0,VALID,25.4734,VALID,19,VALID,1.34531,
2009-11-13, 02:48:04,VALID,1001.72,VALID,0,VALID,95.3457,VALID,0,VALID,25.5142,VALID,49,VALID,0.595703,
2009-11-13, 02:49:04,VALID,1001.68,VALID,0,VALID,95.3457,VALID,0,VALID,25.4753,VALID,49,VALID,0.407813,
2009-11-13, 02:50:04,VALID,1001.67,VALID,0,VALID,95.3381,VALID,0,VALID,25.4344,VALID,21,VALID,0.671094,
2009-11-13, 02:51:04,VALID,1001.69,VALID,0,VALID,95.3457,VALID,0,VALID,25.4539,VALID,38,VALID,0.472656,
2009-11-13, 02:52:04,VALID,1001.67,VALID,0,VALID,95.361,VALID,0,VALID,25.4753,VALID,38,VALID,0.503516,
2009-11-13, 02:53:04,VALID,1001.65,VALID,0,VALID,95.3229,VALID,0,VALID,25.4539,VALID,24,VALID,0.50625,
2009-11-13, 02:54:04,VALID,1001.68,VALID,0,VALID,95.361,VALID,0,VALID,25.4734,VALID,32,VALID,0.519531,
2009-11-13, 02:55:04,VALID,1001.72,VALID,0,VALID,95.3381,VALID,0,VALID,25.5123,VALID,83,VALID,0,
2009-11-13, 02:56:04,VALID,1001.73,VALID,0,VALID,95.3457,VALID,0,VALID,25.5142,VALID,83,VALID,0.439063,
2009-11-13, 02:57:04,VALID,1001.73,VALID,0,VALID,95.3457,VALID,0,VALID,25.5123,VALID,83,VALID,0.342969,
2009-11-13, 02:58:04,VALID,1001.74,VALID,0,VALID,95.3381,VALID,0,VALID,25.5318,VALID,97,VALID,0.607031,
2009-11-13, 02:59:04,VALID,1001.76,VALID,0,VALID,95.3305,VALID,0,VALID,25.5513,VALID,119,VALID,0.585156,
2009-11-13, 03:00:04,VALID,1001.74,VALID,0,VALID,95.3305,VALID,0,VALID,25.5921,VALID,102,VALID,0.810938,
2009-11-13, 03:01:04,VALID,1001.75,VALID,0,VALID,95.3457,VALID,0,VALID,25.5707,VALID,67,VALID,0.786719,
2009-11-13, 03:02:04,VALID,1001.74,VALID,0,VALID,95.3381,VALID,0,VALID,25.5921,VALID,63,VALID,0.226563,
2009-11-13, 03:03:04,VALID,1001.75,VALID,0,VALID,95.3381,VALID,0.100563,VALID,25.5921,VALID,64,VALID,0.367578,
2009-11-13, 03:04:04,VALID,1001.75,VALID,0,VALID,95.3381,VALID,0,VALID,25.5707,VALID,76,VALID,0.219141,
2009-11-13, 03:05:04,VALID,1001.76,VALID,0,VALID,95.3229,VALID,0,VALID,25.5921,VALID,31,VALID,0.43125,
2009-11-13, 03:06:04,VALID,1001.78,VALID,0,VALID,95.3229,VALID,0,VALID,25.5921,VALID,72,VALID,0.478516,
2009-11-13, 03:07:04,VALID,1001.78,VALID,0,VALID,95.3076,VALID,0,VALID,25.5727,VALID,80,VALID,0.642187,
2009-11-13, 03:08:04,VALID,1001.82,VALID,0,VALID,95.3,VALID,0,VALID,25.5921,VALID,71,VALID,0.505469,
2009-11-13, 03:09:04,VALID,1001.85,VALID,0,VALID,95.2847,VALID,0,VALID,25.6116,VALID,61,VALID,0.676953,
2009-11-13, 03:10:04,VALID,1001.83,VALID,0,VALID,95.2923,VALID,0,VALID,25.6311,VALID,74,VALID,0.298828,
2009-11-13, 03:11:04,VALID,1001.83,VALID,0,VALID,95.2771,VALID,0,VALID,25.5902,VALID,27,VALID,0.504687,
2009-11-13, 03:12:04,VALID,1001.84,VALID,0,VALID,95.2618,VALID,0,VALID,25.6097,VALID,41,VALID,0.483594,
2009-11-13, 03:13:04,VALID,1001.82,VALID,0,VALID,95.2466,VALID,0,VALID,25.6895,VALID,77,VALID,0.549219,
2009-11-13, 03:14:04,VALID,1001.85,VALID,0,VALID,95.2313,VALID,0,VALID,25.6895,VALID,76,VALID,0.489844,
2009-11-13, 03:15:04,VALID,1001.89,VALID,0,VALID,95.2084,VALID,0,VALID,25.6681,VALID,50,VALID,0.689062,
2009-11-13, 03:16:04,VALID,1001.86,VALID,0,VALID,95.2084,VALID,0,VALID,25.709,VALID,82,VALID,0.630078,
2009-11-13, 03:17:04,VALID,1001.86,VALID,0,VALID,95.1932,VALID,0,VALID,25.6876,VALID,77,VALID,1.11875,
2009-11-13, 03:18:04,VALID,1001.87,VALID,0,VALID,95.155,VALID,0,VALID,25.7285,VALID,57,VALID,0.260547,
2009-11-13, 03:19:04,VALID,1001.86,VALID,0,VALID,95.1398,VALID,0,VALID,25.6876,VALID,60,VALID,0.240625,
2009-11-13, 03:20:04,VALID,1001.9,VALID,0,VALID,95.1169,VALID,0,VALID,25.709,VALID,41,VALID,0.427734,
2009-11-13, 03:21:04,VALID,1001.88,VALID,0,VALID,95.094,VALID,0,VALID,25.6876,VALID,73,VALID,0.709766,
2009-11-13, 03:22:04,VALID,1001.88,VALID,0,VALID,95.0787,VALID,0,VALID,25.67,VALID,13,VALID,0.335938,
2009-11-13, 03:23:04,VALID,1001.86,VALID,0,VALID,95.0406,VALID,0,VALID,25.67,VALID,13,VALID,0.396875,
2009-11-13, 03:24:04,VALID,1001.83,VALID,0,VALID,95.0253,VALID,0,VALID,25.6486,VALID,91,VALID,1.25391,
2009-11-13, 03:25:04,VALID,1001.84,VALID,0,VALID,94.9796,VALID,0,VALID,25.709,VALID,110,VALID,0.175781,
2009-11-13, 03:26:04,VALID,1001.82,VALID,0,VALID,94.9719,VALID,0,VALID,25.6681,VALID,80,VALID,0.791016,
2009-11-13, 03:27:04,VALID,1001.83,VALID,0,VALID,94.9338,VALID,0,VALID,25.6895,VALID,67,VALID,0.256641,
2009-11-13, 03:28:04,VALID,1001.78,VALID,0,VALID,94.8956,VALID,0,VALID,25.6895,VALID,83,VALID,0.508203,
2009-11-13, 03:29:04,VALID,1001.79,VALID,0,VALID,94.8575,VALID,0,VALID,25.6486,VALID,36,VALID,0.371484,
2009-11-13, 03:30:04,VALID,1001.77,VALID,0,VALID,94.8194,VALID,0,VALID,25.67,VALID,61,VALID,0.641797,
2009-11-13, 03:31:04,VALID,1001.73,VALID,0,VALID,94.7888,VALID,0,VALID,25.6895,VALID,48,VALID,0.769531,
2009-11-13, 03:32:04,VALID,1001.74,VALID,0,VALID,94.7583,VALID,0,VALID,25.7285,VALID,78,VALID,0.319141,
2009-11-13, 03:33:04,VALID,1001.76,VALID,0,VALID,94.7202,VALID,0,VALID,25.7285,VALID,72,VALID,0.696484,
2009-11-13, 03:34:04,VALID,1001.73,VALID,0,VALID,94.6668,VALID,0,VALID,25.7285,VALID,26,VALID,0.914844,
2009-11-13, 03:35:04,VALID,1001.74,VALID,0,VALID,94.6134,VALID,0,VALID,25.748,VALID,19,VALID,0.801953,
2009-11-13, 03:36:04,VALID,1001.72,VALID,0,VALID,94.5523,VALID,0,VALID,25.7674,VALID,349,VALID,0.320703,
2009-11-13, 03:37:04,VALID,1001.76,VALID,0,VALID,94.4837,VALID,0,VALID,25.746,VALID,34,VALID,0.547266,
2009-11-13, 03:38:04,VALID,1001.78,VALID,0,VALID,94.3921,VALID,0,VALID,25.7265,VALID,358,VALID,0.688281,
2009-11-13, 03:39:04,VALID,1001.78,VALID,0,VALID,94.3311,VALID,0,VALID,25.7071,VALID,358,VALID,0.219922,
2009-11-13, 03:40:04,VALID,1001.74,VALID,0,VALID,94.3006,VALID,0,VALID,25.7285,VALID,355,VALID,0.624609,
2009-11-13, 03:41:04,VALID,1001.72,VALID,0,VALID,94.2319,VALID,0,VALID,25.6681,VALID,52,VALID,0.232812,
2009-11-13, 03:42:04,VALID,1001.7,VALID,0,VALID,94.2243,VALID,0,VALID,25.6486,VALID,35,VALID,0.153516,
2009-11-13, 03:43:04,VALID,1001.7,VALID,0,VALID,94.2167,VALID,0,VALID,25.6292,VALID,17,VALID,0.176172,
2009-11-13, 03:44:04,VALID,1001.7,VALID,0,VALID,94.1938,VALID,0,VALID,25.6116,VALID,17,VALID,0.200781,
2009-11-13, 03:45:04,VALID,1001.64,VALID,0,VALID,94.1938,VALID,0,VALID,25.6116,VALID,15,VALID,0.578906,
2009-11-13, 03:46:04,VALID,1001.62,VALID,0,VALID,94.2243,VALID,0,VALID,25.6116,VALID,19,VALID,0.387891,
2009-11-13, 03:47:04,VALID,1001.67,VALID,0,VALID,94.2548,VALID,0,VALID,25.5921,VALID,21,VALID,0.0117188,